www.pogodaiklimat.ru

Погода и климат >> Архив погоды >> Нигер >> Бильма


ПОГОДА в Бильме

  • Прогноз погоды в Бильме
  • Монитор погоды в Бильме

АРХИВ ПОГОДЫ в Бильме

Время (UTC), дата Ветер
(напр.,м/с)
 
Видим.   Явления Облачность Т
(С)
Тd
(С)
f
(%)
Тe
(С)
Тes
(С)
Комфортность P
(гПа)
Po
(гПа)
Тmin
(С)
Tmax
(С)
R
(мм)
R24
(мм)
S
(см)
12 10.08 ЮЗ 2 8000 м пыль 6/0
[Ci sp]
+40.8 +16.7 25 +43 +62 опасность
перегрева
1008.3 969.7
15 10.08 ЮЗ 2 8000 м пыль 6/0
[Ac trans Ci sp]
+41.2 +14.6 21 +42 +48 опасность
перегрева
1005.9 967.3
18 10.08 штиль 0 8000 м пыль 6/0
[Ci sp]
+37.8 +14.7 25 +39 +39 очень
душно
1005.2 966.4 +42.6
21 10.08 штиль 0 8000 м пыль 6/0
[Ci sp]
+31.6 +16.4 40 +35 +35 очень
душно
1006.5 967.7
03 11.08 штиль 0 8000 м пыль 6/0
[Ci sp]
+28.2 +14.0 42 +30 +30 жарко 1004.5 965.9
06 11.08 штиль 0 6000 м пыль 6/0
[Ci sp]
+28.8 +20.2 60 +35 +37 очень
душно
1005.5 966.7 +27.2
09 11.08 З 4 6000 м пыль 6/0
[Ci sp]
+36.4 +18.2 34 +40 +50 очень
душно
1006.4 967.6
12 11.08 СЗ 1 8000 м пыль 6/0
[Ci sp]
+42.8 +9.5 14 +41 +63 опасность
перегрева
1004.1 965.7
15 11.08 З 2 10 км 6/0
[Ac trans Ci sp]
+43.5 +11.2 15 +42 +48 опасность
перегрева
1002.1 963.8
18 11.08 штиль 0 10 км 6/0
[Ci sp]
+37.0 +10.8 21 +36 +36 очень
жарко
1002.2 963.5 +44.3
21 11.08 штиль 0 10 км 6/0
[Ci sp]
+30.0 +8.8 27 +29 +29 жарко 1003.5 964.7
03 12.08 штиль 0 10 км 6/0
[Ci sp]
+28.6 +9.8 31 +29 +29 жарко 1001.7 963.4
06 12.08 СЗ 2 6000 м пыль 6/0
[Ci sp]
+29.5 +11.8 34 +30 +32 жарко 1004.6 965.9 +25.7
09 12.08 ЮЗ 2 4000 м пыль 6/0
[Ci sp]
+35.4 +17.0 34 +38 +53 опасность
солнечного
удара
1005.4 966.5
12 12.08 ЮЗ 4 6000 м пыль 6/0
[Ci sp]
+40.6 +14.6 22 +41 +54 опасность
перегрева
1003.2 964.7
15 12.08 ЮЗ 2 6000 м пыль 6/0
[Ci sp]
+43.2 +13.1 17 +43 +49 опасность
перегрева
1000.9 962.6
18 12.08 штиль 0 8000 м пыль 6/0
[Ci sp]
+39.4 +12.5 20 +39 +39 очень
жарко
1001.1 962.6 +44.1
21 12.08 штиль 0 10 км 6/0
[Ci sp]
+40.2 +15.3 23 +41 +41 опасность
перегрева
1003.2 962.6
03 13.08 штиль 0 3000 м пыль 6/0
[Ci sp]
+31.0 +17.8 45 +35 +35 очень
душно
1003.1 964.9
06 13.08 штиль 0 6000 м пыль 6/0
[Ci sp]
+29.9 +16.8 45 +33 +35 душно 1003.9 965.3 +25.6
09 13.08 Ю 2 6000 м пыль 6/0
[Ci sp]
+36.0 +16.4 31 +38 +53 опасность
солнечного
удара
1005.6 967.4
12 13.08 ЮЗ 4 6000 м пыль 6/0
[Ci sp]
+41.0 +16.1 23 +42 +55 опасность
перегрева
1003.9 965.8
15 13.08 С 4 8000 м пыль 6/0
[Ci sp]
+41.4 +14.0 20 +42 +46 опасность
перегрева
1002.5 964.1
18 13.08 ЮЗ 2 6000 м пыль 6/0
[Ci sp]
+38.9 +13.9 23 +39 +39 очень
жарко
1003.1 964.5 +42.7
21 13.08 ЮВ 2 8000 м пыль 6/0
[Ac trans Ci sp]
+35.8 +15.2 29 +37 +37 душно 1005.1 966.6
03 14.08 штиль 0 8000 м пыль 6/0
[Ci sp]
+30.6 +14.8 38 +33 +33 душно 1004.9 966.4
06 14.08 ЮЗ 2 6000 м пыль 6/0
[Ci sp]
+30.5 +18.3 48 +35 +37 очень
душно
1006.7 968.0 +29.3
09 14.08 ЮЗ 4 6000 м пыль 6/0
[Ci sp]
+35.5 +18.7 37 +40 +50 очень
душно
1007.3 968.7
12 14.08 ЮЗ 4 6000 м пыль 9/0
[Ac trans Ci sp]
+39.8 +15.1 23 +41 +48 опасность
перегрева
1005.4 967.0
15 14.08 ЮЗ 4 8000 м пыль 9/0
[Ac trans Ci sp]
+41.0 +13.3 20 +41 +44 опасность
перегрева
1003.4 965.0
18 14.08 ЮЗ 2 8000 м пыль 6/0
[Ci sp]
+39.0 +13.3 22 +39 +39 очень
жарко
1002.9 964.4 +42.0
21 14.08 штиль 0 8000 м пыль 6/0
[Ci sp]
+34.8 +15.7 32 +37 +37 очень
душно
1005.7 967.1
03 15.08 ЮЗ 2 8000 м пыль 8/0
[Ac trans Ci sp]
+31.8 +19.6 48 +38 +38 очень
душно
1004.9 966.5
06 15.08 штиль 0 6000 м пыль 6/0
[Ci sp]
+31.4 +20.5 52 +38 +40 очень
душно
1007.2 968.5 +30.5
09 15.08 ЮВ 2 3000 м пыль 9/0
[Ac trans Ci sp]
+35.0 +19.6 41 +41 +51 опасность
перегрева
1007.2 968.5
12 15.08 ЮВ 2 6000 м пыль 9/0
[Ac trans Ci sp]
+38.8 +18.1 30 +42 +55 опасность
перегрева
1006.1 967.6
15 15.08 Ю 2 8000 м пыль 6/0
[Ac trans Ci sp]
+37.5 +19.9 36
18 15.08 штиль 0 8000 м пыль 6/0
[Ac trans Ci sp]
+33.6 +19.5 44 +39 +39 очень
душно
1004.2 965.7 +39.2
21 15.08 Ю 2 8000 м пыль 6/0
[Ci sp]
+32.7 +17.2 40 +36 +36 очень
душно
1007.1 968.3
03 16.08 штиль 0 8000 м пыль 9/0
[Ac trans Ci sp]
+31.0 +17.2 44 +35 +35 очень
душно
1006.5 967.8
06 16.08 штиль 0 8000 м пыль 8/0
[Ac trans Ci sp]
+29.3 +19.0 54 +35 +36 очень
душно
1008.1 969.1 +27.5
09 16.08 ЮЗ 2 8000 м пыль 9/0
[Ac trans Ci sp]
+33.4 +20.5 47 +40 +48 очень
душно
1009.7 970.7
12 16.08 З 4 8000 м пыль 8/0
[Ac trans Ci sp]
+35.0 +21.8 46 +43 +53 опасность
перегрева
1008.1 969.2
15 16.08 ЮЗ 2 8000 м пыль 8/1 1200 м
[Cu hum Ac trans Ci sp]
+37.0 +21.2 40 +44 +48 опасность
перегрева
1006.1 967.3
18 16.08 штиль 0 8000 м пыль 6/0
[Ci sp]
+35.0 +21.1 44 +42 +42 опасность
перегрева
1006.2 967.2 +38.6
21 16.08 штиль 0 8000 м пыль 6/0
[Ci sp]
+33.0 +20.7 48 +40 +40 очень
душно
1007.8 968.9
03 17.08 штиль 0 10 км 6/0
[Ci sp]
+30.2 +20.3 55 +37 +37 очень
душно
1006.5 968.6
06 17.08 штиль 0 8000 м пыль 6/0
[Ac trans Ci sp]
+28.5 +20.4 62 +35 +37 очень
душно
1008.5 969.3 +27.2
09 17.08 СЗ 2 6000 м пыль 6/0
[Ac trans Ci sp]
+36.7 +19.5 37 +42 +56 опасность
перегрева
1008.7 970.0

 

Местоположение метеостанции Бильма (Нигер): широта 18.68 долгота 12.92 высота над уровнем моря 357 м.

В архиве по умолчанию представлена погода в Бильме за последнюю неделю. Архивные данные за месяц целиком и за предыдущие месяцы, начиная с января 2011 года, Вы можете получить, выбрав интересующий диапазон дат из раскрывающегося списка и нажав кнопку "Ввод!".


*Определитесь, кто Вы:
робот инопланетянин человек

Внимание! Время в таблицах - всемирное. Для получения местного времени необходимо прибавить поправку, которая равна 1 ч.

Смотрите также архив погоды в соседних городах и на ближайших метеорологических станциях:

Погода в Нгигми (Нигер) (493 км)
Погода в Агадесе (Нигер) (558 км)
Погода в Mao (Чад) (560 км)
Погода в Диффе (Нигер) (585 км)
Погода в Гуре (Нигер) (593 км)
Погода в Бол-Бериме (Чад) (614 км)
Погода в Майне-Сороа (Нигер) (614 км)
Погода в Фая (Чад) (664 км)
Погода в Зиндере (Нигер) (688 км)
Погода в Tinalkoum (Алжир) (715 км)

Пояснения к столбцам:

Ветер - указаны скорость ветра в м/с - средняя за 10 мин, порывы в срок и между сроками (в фигурных скобках) и направление, откуда дует ветер: С - северный, СВ - северо-восточный, В - восточный, ЮВ - юго-восточный, Ю - южный, ЮЗ - юго-западный, З - западный, СЗ - северо-западный.
Видимость - горизонтальная дальность видимости в метрах или километрах. При видимости от 1 до 10 км при отсутствии осадков обычно наблюдается дымка, при ухудшении видимости до 1 км и менее - туман. В сухую погоду видимость может ухудшаться дымом, пылью или мглою.
Явления - указаны атмосферные явления, наблюдавшиеся в срок или в последний час перед сроком; фигурными скобками обозначены явления, наблюдавшиеся между сроками (за 1-3 часа до срока); квадратными скобками обозначены град или гололедные отложения с указанием их диаметра в мм.
Облачность - указаны через наклонную черту общая и нижняя облачность в баллах и высота нижней границы облаков в метрах; квадратными скобками обозначены формы облаков: Ci - перистые, Cs - перисто-слоистые, Cc - перисто-кучевые, Ac - высококучевые, As - высокослоистые, Sc - слоисто-кучевые, Ns - слоисто-дождевые, Cu - кучевые, Cb - кучево-дождевые. Подробнее классификацию облаков см. в Атласе облаков (PDF).
T - Температура воздуха - температура, измеренная на высоте 2 м над землей.
Td - Температура точки росы - температура, при понижении до которой содержащийся в воздухе водяной пар достигнет насыщения.
f - Относительная влажность воздуха - влажноcть воздуха, измеренная на высоте 2 м над землей.
Te - Эффективная температура - температура, которую ощущает одетый по сезону человек в тени. Характеристика душности погоды. При расчете учитывается влияние влажности воздуха и скорости ветра на теплоощущения человека.
Tes - Эффективная температура на солнце - температура, которую ощущает человек, с поправкой на солнечный нагрев. Характеристика знойности погоды. Зависит от высоты солнца над горизонтом, облачности и скорости ветра. Ночью, в пасмурную погоду, а также при ветре 12 м/с и более поправка равна нулю.
P - Атмосферное давление - приведенное к уровню моря атмосферное давление.
Po - Атмосферное давление - измеренное на уровне метеостанции атмосферное давление.
Tmin - Минимальная температура - минимум температуры воздуха на высоте 2 м над землей.
Tmax - Максимальная температура - максимум температуры воздуха на высоте 2 м над землей.
R - Количество осадков - Количество выпавших осадков за период времени, мм. При наведении курсора мыши на число - период времени, за который выпало указанное количество осадков.
R24 - Количество осадков - Количество выпавших осадков за 24 часа, мм.
S - Снежный покров - Высота снежного покрова, см. При наведении курсора мыши на число - состояние снежного покрова и степень покрытия местности в баллах.